Location: Charleville
(26.4021°S, 146.2454°E)
Time: 03:02:16
(UTC+10:00)

Hubble Space Telescope - Pass Details

Date: 02 December 2021
Orbit: 534 x 538 km, 28.5° (Epoch: 26 January)

Event Time Altitude Azimuth Distance (km) Brightness Sun altitude
Rises 19:29:57 0° 268° (W) 2,687 5.6 -7.8°
Reaches altitude 10° 19:32:37 10° 283° (WNW) 1,792 4.2 -8.3°
Maximum altitude 19:35:49 22° 334° (NNW) 1,214 2.5 -8.9°
Drops below altitude 10° 19:39:00 10° 25° (NNE) 1,781 2.9 -9.6°
Enters shadow 19:39:18 - 27° (NNE) 1,874 3.0 -9.6°
